Theta_e
333 334 333 330 326 323 327 329 326 327 329 328 326 328 331 328 324 329 337 333 332 342 344 339 337 333 330 327 324 325 326 326 326 327 327 327 327 327 328 328 328 328 327 327 327 326 326 325 324 323 322 321 320 320 319 319 319 319 319 319 319 319 319 319 319 320 320 320 320 320 319 318 318 317 316 314 313 312 311 309 306 304 302 301 300 299 297
328 330 329 331 329 323 324 329 330 330 332 331 327 328 331 328 324 330 334 333 338 343 339 336 329 323 323 324 324 326 326 326 327 326 327 327 327 327 328 328 328 328 327 327 327 326 326 325 324 323 322 321 321 320 320 320 319 319 319 319 319 319 319 319 320 320 320 320 320 319 318 317 317 315 314 313 312 310 308 305 303 302 300 299 298 296 294
327 332 333 333 330 324 321 327 333 330 327 326 324 326 330 326 323 331 333 333 341 337 325 322 322 321 323 324 324 326 327 326 327 327 327 328 327 328 328 328 328 327 327 327 326 326 325 324 324 323 322 322 321 321 321 320 320 320 320 320 319 319 320 319 320 320 320 320 320 319 317 316 315 313 312 311 310 308 305 303 301 300 298 296 295 293 291
325 329 332 336 336 327 323 329 335 331 326 327 327 327 330 329 329 334 329 328 341 338 322 319 322 321 323 323 324 325 326 327 327 327 328 328 327 328 327 327 328 327 327 327 326 326 325 325 324 323 323 322 321 321 321 321 321 320 320 320 319 319 320 319 320 320 320 319 319 317 316 314 313 312 311 310 307 305 303 302 300 297 294 293 292 291 291
325 327 331 337 340 333 330 335 336 331 331 333 328 325 328 330 333 336 329 328 338 333 324 328 329 323 322 323 325 326 326 327 327 327 328 327 327 328 327 327 327 326 326 326 325 326 325 324 324 323 323 323 322 322 321 321 320 320 320 320 319 320 320 320 320 320 319 319 317 315 314 313 312 311 309 307 305 303 302 301 297 294 292 292 292 291 291
325 332 334 332 330 331 335 338 335 330 328 329 328 328 332 332 332 334 330 330 333 328 327 335 334 327 326 325 325 326 326 327 327 327 327 327 327 327 326 326 326 326 326 326 325 326 325 325 325 324 323 323 322 322 322 320 320 320 320 320 320 320 320 320 320 320 319 317 315 314 313 312 311 309 307 305 303 302 301 299 295 292 292 292 291 291 291
326 336 338 329 325 334 341 336 328 324 323 325 328 333 337 334 331 332 332 331 332 326 324 327 326 325 326 325 325 327 326 326 327 327 326 327 326 326 326 326 325 325 325 326 325 326 325 325 324 324 323 323 322 322 321 320 320 320 320 320 321 320 320 320 320 318 317 315 313 313 312 311 309 307 305 303 302 302 300 296 293 292 291 291 291 291 290
321 329 333 330 330 337 340 330 322 320 321 323 324 327 338 343 335 330 334 335 329 320 318 321 323 323 324 324 325 326 326 326 327 326 326 326 325 325 325 325 325 325 325 325 325 325 325 325 325 324 323 323 322 322 320 320 320 321 320 320 320 320 320 319 318 316 315 313 313 312 312 309 307 304 303 302 301 300 298 294 292 291 291 291 291 290 290
322 328 330 332 330 329 335 333 324 321 324 329 329 326 336 348 334 323 330 337 326 317 318 322 322 322 324 325 326 326 326 326 326 326 326 325 324 325 325 325 326 325 325 325 325 325 325 325 325 324 323 323 322 321 320 321 321 320 320 320 320 319 318 316 315 314 313 313 312 312 309 307 305 303 302 301 301 299 296 293 291 291 291 291 290 290 290
325 329 325 325 323 325 339 344 329 321 321 325 328 327 331 337 324 315 325 336 325 316 318 320 320 323 327 330 330 327 325 326 326 326 325 325 325 325 325 325 325 324 323 323 323 324 324 325 325 324 323 322 321 321 321 321 320 319 319 318 318 317 315 315 314 313 312 312 312 310 307 305 303 302 301 300 300 298 295 292 291 291 291 291 290 290 289
323 326 321 320 322 328 341 344 331 320 317 318 323 328 332 330 318 313 321 325 319 316 318 319 321 326 332 335 331 326 325 326 326 325 325 325 325 325 324 323 322 321 320 320 322 324 324 324 324 323 322 321 321 321 320 319 318 318 317 317 316 315 314 314 313 312 312 312 310 307 305 303 302 302 301 300 299 297 294 291 291 291 291 290 290 289 289
324 327 324 324 325 325 330 335 329 319 317 320 323 328 336 330 316 315 320 320 318 319 319 319 323 328 334 334 327 323 325 326 325 325 325 325 325 324 322 320 319 318 319 319 322 324 324 323 323 322 321 321 320 318 318 317 316 316 316 315 315 314 314 313 313 313 312 311 308 305 304 303 302 301 300 299 298 296 293 291 291 290 290 290 289 289 289
327 322 320 323 328 330 328 326 323 316 316 322 326 330 335 327 316 317 319 319 321 321 319 320 324 326 327 326 323 322 324 324 324 325 324 324 323 321 319 318 318 319 320 321 322 323 322 321 321 320 319 318 316 316 315 315 315 315 315 315 314 313 313 313 313 313 311 308 306 304 303 302 301 301 300 299 298 295 292 291 290 290 290 289 289 289 289
326 326 326 324 324 326 323 321 318 315 318 327 332 330 324 319 319 321 320 319 322 322 321 322 323 323 323 323 322 321 321 323 324 324 323 323 321 320 319 318 318 319 321 322 321 321 320 319 318 317 316 315 314 314 314 315 315 314 314 314 313 313 313 313 313 311 309 306 304 303 302 302 301 301 300 299 297 294 291 291 290 290 289 289 289 289 289
323 325 326 326 328 325 321 320 321 318 321 329 330 323 318 319 322 323 320 320 321 321 322 323 322 322 322 321 321 320 321 323 323 323 323 322 320 319 319 318 319 320 321 320 319 318 317 315 315 314 314 314 314 314 314 314 314 314 314 314 313 313 313 313 311 309 306 304 303 303 302 302 301 300 300 299 296 293 291 290 290 289 289 290 290 289 289
329 328 328 332 334 328 321 322 326 324 322 323 321 319 320 322 321 321 322 321 321 321 322 323 322 321 321 320 320 321 321 322 323 322 322 321 320 319 318 318 320 320 319 318 316 315 314 314 314 314 314 314 314 314 315 314 314 314 314 313 313 313 313 312 310 307 305 304 303 303 302 302 301 301 300 298 295 292 291 290 290 289 290 290 289 289 289
332 335 334 328 322 320 320 322 325 324 320 320 321 320 321 322 321 322 322 321 321 322 322 322 322 321 321 320 320 320 321 322 322 322 321 320 319 319 318 318 319 319 317 316 315 314 314 314 314 314 314 314 314 314 315 315 314 314 314 313 313 313 312 310 308 305 304 303 303 303 302 302 301 300 299 297 294 292 291 290 290 290 290 290 290 289 289
325 323 324 320 317 321 324 322 322 323 321 321 321 319 320 322 322 322 321 321 322 322 321 322 322 322 321 320 320 320 321 322 322 322 321 320 319 318 318 318 318 317 316 315 315 315 315 314 314 314 314 314 315 315 315 315 314 314 314 314 313 312 311 309 306 304 304 303 303 302 302 302 301 300 299 296 293 292 291 290 290 290 289 290 289 289 289
326 327 331 327 321 322 324 323 324 325 323 322 321 320 321 322 322 322 322 322 322 322 322 322 321 321 321 320 320 320 321 321 322 321 321 320 319 318 317 317 317 316 316 316 315 315 315 315 315 315 314 315 315 316 316 315 315 314 314 313 313 312 310 308 305 304 303 303 302 302 302 301 301 300 298 295 293 292 291 290 290 290 290 290 289 289 289
328 330 329 325 320 320 323 324 325 324 323 324 323 321 321 322 322 323 322 322 323 323 322 322 321 321 321 320 320 320 320 321 322 321 321 321 319 317 317 316 316 316 316 316 316 316 317 316 315 314 315 315 316 316 316 315 315 314 314 313 312 311 309 306 304 303 303 303 302 302 302 301 301 299 297 295 293 292 291 290 290 290 290 290 289 289 289
334 328 321 321 324 326 324 322 324 324 323 325 324 322 323 323 323 324 323 323 323 323 322 322 321 320 320 320 320 320 320 321 321 321 321 321 318 317 317 316 316 316 316 316 316 316 317 317 315 315 315 316 316 316 315 315 314 314 313 312 311 310 307 305 304 303 303 302 302 302 302 301 300 299 297 295 293 292 291 291 290 290 290 290 289 289 289
339 332 323 322 326 327 324 322 324 324 322 324 324 323 323 322 323 324 324 323 323 322 322 322 321 320 321 320 320 320 320 320 321 321 321 320 318 317 317 316 316 316 316 316 316 316 317 318 317 316 315 316 316 316 315 314 314 313 313 312 311 310 307 304 304 304 303 302 302 302 301 301 300 299 296 294 293 292 291 291 290 290 290 290 289 289 289
334 327 323 321 321 323 323 322 323 323 323 324 324 323 323 322 323 324 323 323 323 322 321 321 321 321 321 321 320 321 320 320 321 321 321 321 319 317 317 317 317 316 316 317 317 316 317 318 318 317 317 316 315 315 314 314 314 313 312 312 311 309 306 304 304 304 303 302 302 301 301 300 299 298 296 294 293 292 291 291 291 290 290 290 289 289 289
325 322 323 322 321 322 323 322 323 324 323 323 323 323 323 323 322 323 323 323 322 322 321 321 321 321 321 321 321 321 320 321 321 321 321 321 320 318 318 317 317 316 317 317 317 317 317 317 318 318 317 316 314 314 314 314 313 312 312 311 309 307 304 304 304 304 303 302 301 301 301 300 298 297 296 294 293 292 291 291 291 290 290 290 289 289 289
321 321 322 321 322 323 322 322 323 323 323 323 323 323 323 323 323 323 323 322 322 322 321 321 321 321 321 321 321 321 321 321 321 320 321 321 320 319 318 318 317 317 317 317 317 317 317 317 318 318 318 316 314 313 313 313 312 311 311 310 308 305 304 304 304 303 303 302 301 301 300 299 298 297 295 293 292 292 291 291 291 291 290 290 290 289 289
320 320 321 321 322 321 321 321 321 321 322 322 322 322 323 323 323 323 322 322 322 322 321 321 321 321 321 321 321 321 321 321 321 321 321 321 320 319 319 318 318 317 317 317 317 316 316 317 317 318 318 317 314 313 313 312 311 310 310 309 306 304 304 305 304 304 303 302 301 300 299 298 297 296 294 292 292 291 291 291 290 290 290 290 289 289 289
317 318 320 320 320 319 320 319 319 320 320 320 321 321 322 322 322 323 323 322 322 322 322 321 321 321 322 321 321 321 321 321 321 321 320 321 321 320 319 319 319 318 317 317 317 317 316 316 316 317 318 317 315 312 312 311 310 309 309 308 305 304 304 305 304 303 303 301 300 300 299 298 297 295 294 293 292 291 291 290 290 290 290 289 289 289 289
315 315 315 315 314 315 317 319 319 320 321 321 321 321 321 321 322 322 322 322 322 322 322 322 321 321 322 322 321 321 321 320 320 320 320 321 320 320 320 319 318 318 317 317 317 317 316 316 316 316 317 317 315 312 312 311 310 309 308 307 305 304 304 304 304 304 303 301 300 299 298 297 296 295 293 292 291 291 291 290 290 290 290 289 289 289 289
310 310 312 313 312 314 317 319 320 319 320 320 321 321 321 321 321 321 322 322 322 322 322 322 322 321 322 322 322 322 321 321 321 321 320 320 320 320 320 320 319 318 317 317 317 317 316 316 317 317 317 317 315 312 311 311 310 309 308 306 305 304 304 305 304 304 303 302 300 299 297 296 295 294 293 292 291 291 291 290 290 290 290 290 289 289 289
307 308 310 312 314 315 316 316 315 316 316 318 319 319 320 321 321 321 321 321 321 322 322 322 322 322 322 322 322 322 322 321 321 321 321 321 321 320 320 320 319 318 317 317 317 317 317 317 317 316 317 317 315 312 311 311 309 309 308 306 304 304 304 305 304 304 303 302 301 299 298 296 295 294 293 292 291 291 291 291 290 290 290 290 289 289 289
306 307 310 312 313 313 313 312 312 313 314 315 317 317 318 319 319 319 320 320 320 321 321 321 322 322 322 322 322 321 322 322 321 321 321 321 321 320 320 320 319 319 319 319 318 317 317 317 316 316 317 316 315 313 311 311 310 309 308 306 304 304 304 305 305 304 303 302 301 300 299 297 296 295 293 292 292 292 291 291 291 290 290 290 290 289 289
306 308 311 310 309 308 309 309 310 311 312 312 313 314 315 315 315 316 317 318 318 319 319 320 321 321 321 322 322 321 322 322 321 322 321 321 321 320 320 320 320 320 320 320 319 319 318 317 317 317 316 316 316 313 311 311 310 309 308 306 305 304 304 304 305 304 303 303 302 301 300 299 297 295 294 293 293 292 291 291 291 290 290 290 290 289 289
304 306 306 305 304 304 305 305 305 307 309 310 310 310 311 313 314 315 316 316 317 318 318 319 320 320 320 321 321 321 321 321 321 321 321 321 321 320 320 320 320 320 320 320 319 319 318 318 318 317 317 317 316 314 312 311 310 310 309 307 305 304 304 304 305 304 304 303 302 302 301 300 298 296 295 294 293 292 291 291 291 291 290 290 290 289 289
301 301 301 300 301 301 301 301 302 304 306 308 309 310 310 312 313 314 315 316 317 318 318 318 319 320 320 320 320 320 320 321 321 321 321 321 321 321 320 320 320 320 320 320 319 319 319 318 318 318 317 317 316 315 312 311 310 310 309 308 305 304 304 304 305 305 304 303 303 303 302 300 299 298 296 295 293 292 292 291 291 291 290 290 290 289 289
299 299 299 298 298 298 299 299 300 301 302 304 306 307 309 310 311 312 314 315 316 316 317 318 318 319 319 320 320 319 320 320 321 321 321 322 322 321 321 320 320 319 319 319 319 319 319 319 318 318 317 317 317 315 313 312 311 310 309 308 306 305 304 304 305 305 304 304 303 303 302 302 301 300 298 296 294 293 292 292 291 291 291 290 290 289 289
297 297 297 297 297 297 298 298 298 299 300 301 302 304 306 308 309 310 311 313 314 315 315 316 318 318 318 319 319 318 319 320 320 321 322 322 322 322 321 321 320 319 319 319 319 320 319 319 318 318 317 317 317 316 315 312 311 310 310 309 307 305 304 304 305 305 305 304 303 303 303 303 302 300 298 297 295 294 294 293 292 292 291 291 290 289 289
296 296 296 297 296 297 297 297 298 298 299 301 301 302 303 305 307 308 309 311 312 313 314 315 316 317 318 318 318 318 318 319 319 320 321 321 322 322 321 321 321 320 320 320 320 320 320 319 319 318 318 317 317 317 315 314 312 311 310 309 307 306 305 304 304 305 305 305 304 303 303 303 302 301 299 298 297 296 295 294 293 292 291 291 290 290 289
296 296 296 296 296 296 297 297 297 297 298 299 300 301 301 302 304 306 308 309 310 311 312 314 315 316 317 318 317 317 318 318 318 319 320 320 321 321 321 321 321 320 320 320 320 320 320 320 319 319 318 318 317 317 317 315 312 311 310 310 309 307 305 305 304 305 305 305 304 303 303 303 304 303 302 301 300 299 297 296 294 293 292 291 290 290 290
296 296 296 296 296 296 296 296 297 297 297 297 298 299 300 301 302 304 306 308 309 309 310 312 314 315 316 317 317 317 318 318 317 318 319 319 320 321 321 321 321 320 319 319 320 320 320 320 320 319 319 318 318 317 317 315 313 311 310 310 309 308 306 305 305 305 305 305 305 304 304 304 304 304 304 303 301 300 298 297 295 293 293 292 291 291 290
296 296 296 297 297 297 297 296 296 297 296 297 297 298 299 300 300 302 303 305 307 308 309 310 312 313 314 315 316 317 317 317 317 317 318 318 319 320 321 321 320 320 320 319 320 320 320 320 320 319 319 319 318 318 317 316 314 312 310 310 310 309 307 305 305 305 305 305 305 305 304 304 304 305 305 304 303 301 300 298 296 295 294 293 292 292 291
296 296 296 297 297 297 297 297 297 297 297 297 297 297 298 299 300 301 302 303 305 307 308 308 310 311 312 314 315 316 317 317 317 316 317 317 318 319 320 320 320 320 319 319 320 320 320 320 320 320 319 319 319 318 318 317 315 312 311 310 310 309 308 306 305 305 305 305 305 305 305 304 305 305 305 305 304 303 302 300 298 297 296 294 293 292 291
295 296 296 296 297 297 297 298 298 298 297 297 297 297 298 298 300 302 302 302 303 305 306 307 308 309 310 313 315 316 316 317 317 316 316 317 317 318 319 320 320 320 319 319 320 320 320 320 320 320 320 319 319 318 318 318 316 314 312 310 310 310 309 308 306 306 305 305 305 305 305 305 305 305 305 305 305 304 303 302 300 299 298 297 295 293 292
295 296 296 296 297 297 297 298 298 298 298 298 297 297 298 298 300 302 303 302 302 303 305 306 307 308 309 311 313 315 316 316 317 316 316 316 317 317 318 319 320 320 320 319 319 320 320 320 320 320 320 320 319 319 318 318 317 315 313 311 311 310 310 309 308 307 306 305 305 305 305 305 305 306 305 305 305 305 304 303 302 301 299 298 297 295 293
296 296 296 296 296 297 297 297 298 298 299 299 298 297 298 298 299 301 302 302 301 302 303 304 305 306 307 309 311 312 314 314 315 316 315 315 316 317 318 318 319 319 319 319 319 319 320 320 320 321 320 320 320 319 319 318 318 317 314 312 311 311 310 310 309 308 307 307 306 305 305 305 305 306 306 306 305 305 305 304 304 302 301 299 298 296 294
296 296 295 296 296 296 297 297 298 298 299 299 299 298 298 298 299 300 300 301 301 301 301 302 303 305 306 307 308 310 311 313 314 314 314 314 315 317 317 318 318 319 319 320 319 319 319 320 320 321 321 321 320 320 319 319 319 318 316 314 312 311 311 310 310 310 309 309 308 307 306 305 305 305 305 305 305 305 305 305 304 303 302 301 299 298 296
295 296 296 296 296 296 296 297 297 298 299 299 299 299 298 298 298 299 299 299 300 300 300 301 302 303 304 305 306 308 310 312 313 313 313 312 313 315 316 317 317 318 319 319 319 319 319 320 320 320 321 321 320 320 319 319 319 319 317 316 314 312 311 311 311 310 310 310 310 309 308 307 306 306 305 305 305 305 305 305 304 304 303 302 301 299 297
295 295 295 295 296 296 296 297 297 298 298 299 299 299 298 298 298 298 298 298 299 299 299 300 300 301 302 303 304 306 308 310 312 313 313 313 313 314 314 315 316 317 317 318 319 319 320 319 319 320 321 321 320 320 320 320 320 319 319 317 315 314 313 312 311 311 311 311 311 310 310 309 308 307 306 306 305 305 305 305 305 304 303 302 302 300 298
295 295 295 296 296 296 296 296 297 297 297 298 298 298 298 299 299 299 299 299 299 299 299 300 300 300 301 302 302 303 304 306 308 310 311 312 313 313 313 314 314 315 316 317 318 319 319 320 320 319 320 321 320 320 320 320 320 320 319 318 317 315 314 313 313 312 311 311 311 311 311 310 310 309 308 307 306 306 305 305 304 304 304 303 303 302 300
295 295 295 296 296 296 296 296 296 297 297 297 297 297 298 298 299 299 299 299 299 299 300 300 300 301 301 302 302 302 303 303 305 307 309 311 312 312 313 313 314 314 315 316 317 318 318 319 319 319 320 320 320 320 320 320 320 320 320 319 318 317 315 315 314 314 313 312 311 311 311 311 311 310 310 310 309 307 306 305 305 304 304 304 303 303 302
295 295 295 296 296 296 296 296 296 297 297 297 296 296 297 297 298 299 299 299 299 299 300 300 301 301 301 301 302 302 302 302 303 304 307 309 311 312 312 312 313 314 314 314 315 317 317 318 319 319 319 320 320 320 320 320 320 320 320 320 319 318 317 316 315 315 314 314 313 312 311 311 311 311 311 311 310 309 308 307 306 305 304 304 303 303 302
295 295 295 296 296 296 296 296 296 296 296 296 295 296 296 297 297 298 298 298 298 299 299 300 300 300 301 301 301 301 302 302 303 303 304 307 309 311 312 312 312 313 314 314 314 315 316 317 318 318 319 319 319 320 320 320 321 320 320 320 319 319 318 317 316 316 315 315 314 313 312 312 312 311 311 311 311 310 309 309 307 306 305 304 304 303 303
296 296 296 296 296 296 296 296 296 296 295 295 295 295 296 296 297 297 297 298 298 299 299 300 300 300 300 300 301 301 301 301 302 302 303 305 307 309 311 312 311 311 312 314 314 314 315 316 317 317 318 318 319 319 320 320 321 321 320 320 319 319 318 318 317 317 316 316 316 315 314 313 312 312 312 311 311 311 310 309 308 307 306 305 304 304 303
Wind_Speed
3 4 2 0 2 1 2 4 5 4 4 5 4 5 5 7 5 6 6 5 5 7 7 7 8 8 9 10 13 16 16 17 18 18 20 22 22 23 24 24 25 24 23 22 21 21 20 21 22 21 20 19 18 17 17 15 15 15 16 17 18 18 19 20 17 15 14 16 18 18 18 18 17 16 15 13 11 11 12 15 16 16 16 16 16 16 17
4 3 1 1 3 1 1 2 3 3 5 7 5 4 4 6 5 5 4 5 7 8 7 8 7 8 9 8 10 13 15 16 17 18 20 21 22 22 22 22 23 22 21 21 20 20 20 20 21 20 19 17 16 16 16 16 16 17 18 18 18 17 19 20 18 16 15 17 19 19 18 17 15 14 12 10 10 11 14 15 15 15 15 15 15 16 16
5 6 5 3 3 3 1 4 4 1 2 3 3 2 3 3 3 3 3 2 7 7 6 6 4 5 8 8 10 14 15 17 18 18 19 20 20 20 20 20 21 20 20 20 21 20 20 20 20 20 19 17 16 16 16 17 18 19 20 20 18 17 18 19 17 15 16 18 19 18 16 14 13 11 9 9 11 13 14 14 14 14 14 14 14 15 15
4 5 6 5 4 6 2 7 6 2 3 3 3 3 4 5 4 2 1 1 5 6 4 2 3 7 10 10 13 15 15 17 18 19 19 19 19 19 19 20 20 20 20 20 21 20 20 20 20 20 19 18 16 16 16 18 19 17 18 19 18 17 17 17 16 15 17 19 18 16 14 13 11 9 8 10 12 13 13 13 13 13 13 13 13 13 14
4 5 4 3 4 7 4 7 5 6 5 4 4 4 4 6 6 5 3 5 6 5 3 3 2 4 7 10 14 15 16 17 19 19 18 18 18 19 19 20 20 20 21 20 20 19 18 19 20 19 19 18 17 17 17 18 16 15 16 17 16 16 15 15 15 16 18 18 16 15 13 10 8 8 9 11 11 11 11 11 12 11 11 12 12 13 13
4 7 5 4 5 3 5 6 6 7 6 6 6 6 6 6 4 3 4 5 4 3 5 6 7 8 10 13 15 15 16 17 18 19 19 18 18 18 18 20 20 20 21 21 21 20 19 18 19 19 19 19 18 19 18 16 14 15 16 16 15 15 14 14 15 17 18 17 15 13 11 8 8 9 10 10 10 10 10 10 11 11 11 12 12 12 13
1 3 5 5 1 6 8 5 2 5 6 7 7 7 7 7 7 6 6 7 6 7 10 10 11 14 13 14 15 16 16 18 18 18 19 19 19 20 20 20 20 20 20 21 21 21 20 19 19 19 19 18 17 18 16 14 15 15 15 15 15 14 14 15 16 17 17 16 13 11 8 7 8 8 9 9 9 9 9 10 10 10 11 11 12 12 13
0 2 4 2 5 8 7 5 2 3 2 3 3 5 8 7 8 7 7 8 7 8 10 8 7 10 10 10 14 17 18 19 19 19 20 19 19 20 20 19 18 18 18 20 21 21 22 21 21 20 19 18 16 16 16 15 15 14 14 14 14 15 15 16 17 17 16 14 11 8 7 8 8 8 8 8 8 8 9 10 10 10 11 11 12 12 12
1 2 1 2 4 8 7 5 1 4 2 4 6 2 8 8 8 10 9 6 5 6 8 6 4 5 4 3 11 18 20 20 22 21 21 21 20 19 19 18 18 18 19 21 22 22 23 24 23 21 19 18 17 16 16 15 14 13 14 15 15 16 16 16 17 16 14 11 8 7 7 7 7 7 7 7 7 8 9 10 10 10 11 11 11 11 11
2 4 1 3 3 4 6 7 6 3 3 5 7 4 5 8 9 13 11 6 6 8 7 7 7 6 4 2 10 19 22 22 24 23 23 23 21 18 17 17 16 16 16 17 18 18 19 22 22 21 19 18 17 16 15 15 14 14 15 16 16 16 16 17 16 14 11 8 7 6 6 6 6 6 6 6 7 9 10 10 10 10 10 10 9 9 10
2 4 1 2 2 5 7 8 7 3 2 6 5 6 5 8 8 14 13 8 10 12 13 15 12 7 3 4 13 20 23 24 25 25 25 23 19 15 13 12 12 12 13 12 11 10 13 17 19 19 18 18 16 15 14 14 15 15 16 16 16 16 17 17 15 12 9 7 6 6 6 6 5 5 4 6 8 9 10 9 9 9 9 9 9 9 11
2 3 2 2 4 5 6 7 6 1 4 5 6 5 7 7 5 11 17 15 15 16 17 17 12 5 6 8 12 16 20 23 24 24 23 20 16 14 13 11 10 10 9 7 6 8 13 17 19 18 17 16 14 14 14 14 15 15 16 16 17 17 17 16 13 10 7 6 7 6 6 5 3 3 4 6 9 9 9 8 8 8 8 8 9 10 11
3 3 1 3 5 6 6 6 4 6 5 4 5 2 8 6 7 6 17 19 18 19 20 18 13 13 17 15 10 9 14 20 22 19 16 15 15 14 13 11 9 8 7 6 8 12 16 18 18 17 15 14 14 13 13 13 14 15 16 17 18 18 16 14 11 9 7 6 6 5 4 3 2 3 5 7 9 9 8 7 7 7 7 8 9 10 11
3 3 1 2 4 5 4 3 5 7 3 1 4 6 5 6 7 5 12 18 19 20 23 23 20 19 21 18 12 8 11 17 18 17 17 18 18 15 13 11 9 9 11 14 15 17 18 17 16 15 14 13 13 12 11 12 13 15 17 18 18 17 15 12 10 8 7 6 5 4 3 2 2 4 6 8 9 8 7 6 6 6 7 7 9 10 11
3 2 2 1 3 5 7 11 6 3 4 3 3 2 4 6 7 6 8 15 18 20 23 25 23 19 16 16 14 10 12 16 18 20 22 21 19 16 14 12 12 13 16 18 18 17 16 15 14 14 13 11 10 9 10 12 14 17 19 19 18 16 13 11 8 7 6 6 5 3 3 2 3 5 7 8 8 7 6 5 5 6 6 8 8 9 11
4 2 1 4 4 5 13 13 4 4 9 6 2 5 6 8 7 6 6 10 15 19 22 24 23 20 16 14 13 12 15 19 21 23 23 21 19 17 15 14 16 17 18 19 18 16 14 14 13 12 10 9 8 9 10 13 16 18 19 19 17 15 12 9 7 6 6 6 5 4 2 2 4 6 7 8 7 6 5 4 5 6 7 7 8 9 10
5 5 6 7 6 6 12 18 11 4 5 9 7 5 8 8 6 5 5 6 10 15 19 22 23 22 19 15 13 14 19 22 24 25 24 21 20 18 17 18 19 19 18 18 17 15 14 13 12 11 10 8 8 9 11 14 17 19 19 18 16 13 10 8 7 7 7 6 5 4 3 3 5 6 8 8 6 5 4 4 5 6 6 7 7 8 10
4 5 7 8 9 9 9 18 19 11 6 7 8 9 9 8 6 6 4 3 5 9 14 19 20 22 22 18 13 16 22 25 26 26 24 22 21 20 21 22 22 20 18 17 16 15 14 14 12 11 10 9 9 10 12 15 17 19 19 18 15 12 10 8 8 8 7 7 6 5 4 4 6 8 8 8 6 4 4 4 5 6 6 7 8 9 9
1 2 5 5 6 9 8 10 17 19 16 12 9 8 9 8 8 8 7 6 5 6 9 13 15 18 22 20 16 17 24 27 28 27 26 24 24 23 24 23 23 22 20 18 17 17 16 15 14 13 13 12 11 11 12 14 17 18 18 17 14 11 9 8 8 8 7 7 6 6 5 6 8 9 8 7 6 5 5 5 6 6 6 7 8 9 9
1 5 8 8 10 11 10 8 12 15 17 17 15 11 9 10 10 10 10 9 8 8 9 10 11 14 18 19 18 19 23 28 29 28 27 26 25 25 25 24 23 23 21 19 19 18 17 16 16 15 15 14 14 13 13 14 17 18 18 16 13 11 9 8 8 8 8 7 7 6 7 8 9 9 8 7 6 5 5 6 6 6 7 7 8 8 9
3 4 7 9 11 9 8 10 11 13 14 16 17 14 12 12 13 13 12 12 12 12 11 10 11 12 14 16 17 19 23 27 29 29 28 27 27 27 26 25 24 22 21 19 19 18 18 17 17 17 17 16 16 16 14 15 17 18 17 15 13 11 9 9 9 8 8 9 8 8 9 10 10 9 9 8 7 6 6 6 7 7 7 7 8 8 9
3 4 5 6 4 5 11 14 13 12 13 14 16 17 15 14 15 16 15 15 14 14 13 12 12 13 13 13 15 19 22 24 27 29 29 29 28 27 27 26 24 23 21 19 19 19 19 19 19 18 18 18 18 17 16 16 16 17 17 15 13 12 11 10 9 9 10 10 10 10 11 11 11 10 9 8 8 7 7 7 7 7 7 7 8 8 9
4 6 8 6 2 7 13 15 14 12 11 11 12 16 18 17 17 17 17 17 16 15 13 13 12 13 14 14 15 18 20 23 25 27 28 29 29 28 28 27 25 24 23 22 21 21 20 21 21 21 20 20 19 19 18 17 17 16 16 15 14 13 12 11 10 10 11 11 12 12 12 12 12 11 10 9 8 8 8 7 8 8 8 8 8 8 9
5 7 9 9 6 10 14 15 13 12 11 9 9 11 15 18 18 19 19 20 18 16 14 13 12 11 12 15 17 17 18 21 25 28 28 28 28 28 27 26 26 25 25 24 24 23 22 22 23 23 22 21 20 20 19 18 17 17 16 15 13 12 12 11 11 11 12 12 13 13 13 13 12 12 11 10 9 9 8 8 8 8 8 8 8 9 9
13 15 15 14 13 15 16 15 12 11 12 11 9 9 11 14 17 19 20 21 21 18 16 15 13 11 10 13 17 19 18 19 22 27 29 29 29 29 28 28 27 26 25 24 24 24 24 24 24 25 24 23 22 21 20 19 18 18 16 15 13 13 12 11 12 13 14 13 13 13 13 12 12 11 11 10 9 9 9 9 10 9 9 8 8 9 9
19 18 17 15 16 18 21 20 18 17 17 16 15 14 14 14 15 16 17 19 20 21 19 17 15 14 12 11 14 18 20 19 20 25 29 31 31 31 30 28 27 27 27 26 25 24 25 25 25 26 27 26 24 22 21 19 19 18 17 15 14 14 13 11 11 13 13 13 13 13 12 12 12 11 11 10 10 10 10 10 10 10 9 9 9 9 9
25 23 19 13 14 20 23 23 21 22 22 22 21 21 21 19 18 17 15 15 17 19 20 20 18 16 16 14 14 17 22 23 24 27 31 32 32 30 28 28 28 29 30 29 27 27 27 27 27 28 28 28 26 24 22 20 19 19 17 17 16 15 13 12 11 12 13 12 12 12 12 12 11 11 11 11 11 11 11 10 10 10 10 9 10 10 9
28 29 26 18 15 19 20 18 16 17 18 20 20 21 22 22 22 20 19 18 16 17 19 21 20 20 19 19 18 20 23 25 27 28 31 32 31 30 29 30 32 33 33 33 31 30 29 29 29 30 30 29 28 25 23 22 21 20 19 19 19 18 16 13 13 13 12 12 12 12 11 11 11 11 12 13 12 12 11 11 11 11 10 10 10 10 10
27 28 28 25 22 20 16 14 16 19 20 19 19 19 20 21 22 22 22 22 21 20 20 20 21 23 22 22 22 23 24 26 28 28 29 30 31 31 32 33 35 36 37 36 35 33 32 32 32 32 32 32 30 27 25 24 22 21 21 21 21 20 17 14 13 13 13 13 12 12 12 12 13 13 14 14 13 13 12 12 12 11 11 11 11 11 10
25 26 29 29 27 24 23 24 27 28 27 24 22 21 20 18 18 20 21 21 23 25 24 23 23 23 24 26 27 27 27 27 27 28 28 28 30 33 35 37 39 40 41 40 38 37 36 35 35 35 35 34 32 29 27 26 24 22 22 22 22 21 17 14 14 14 14 14 13 13 14 14 15 15 15 14 14 14 13 13 13 12 12 12 12 11 10
22 24 28 30 30 31 33 35 34 33 32 30 28 26 25 23 22 22 21 20 20 22 25 27 27 26 26 27 28 29 29 30 30 30 30 30 32 36 38 39 40 41 39 38 39 39 39 39 38 37 37 36 34 31 29 27 25 24 23 23 23 22 19 16 15 15 15 15 15 15 15 16 16 16 15 15 15 15 14 13 13 13 13 13 13 11 11
27 29 32 34 36 36 37 37 37 36 36 34 33 32 31 29 28 27 25 23 21 19 20 23 26 29 30 30 30 31 31 31 33 34 34 35 37 39 40 40 40 39 37 37 38 40 41 41 40 39 39 38 36 33 31 29 27 26 25 25 25 24 22 19 18 17 17 17 17 16 16 16 16 16 16 15 15 14 14 14 14 13 13 14 13 12 11
33 33 33 35 37 37 37 37 37 36 35 35 34 34 33 31 30 28 27 25 23 20 19 19 20 23 26 29 32 34 34 34 35 36 38 39 41 41 42 43 43 41 40 40 40 41 42 41 40 40 41 41 38 35 33 31 29 27 26 25 25 26 25 23 21 20 19 19 18 17 16 16 16 16 16 15 14 14 15 15 14 14 14 14 13 12 13
26 24 23 26 28 29 30 33 34 34 34 34 33 33 34 34 33 31 29 27 24 23 22 20 18 18 19 22 27 31 35 37 38 38 38 40 41 42 43 44 45 45 45 45 45 45 44 43 42 42 43 42 40 37 35 33 31 29 27 26 27 27 27 25 23 22 22 21 19 17 17 17 17 17 16 15 15 16 16 15 15 14 14 14 13 13 14
23 21 22 24 25 25 25 28 30 31 32 32 32 33 34 34 35 34 33 31 29 27 25 22 20 19 18 19 22 25 30 35 39 40 40 39 38 39 41 44 47 48 49 49 49 47 45 44 44 44 44 44 42 39 37 35 33 31 29 28 28 29 28 27 25 24 23 22 20 19 19 18 17 17 16 16 16 17 16 16 16 16 15 14 14 14 15
26 26 26 27 27 27 27 27 28 28 29 30 31 32 32 33 34 35 35 35 33 32 30 26 22 19 19 20 21 23 25 28 32 38 41 41 39 38 40 43 46 47 49 51 50 48 47 47 46 46 46 46 44 42 39 36 35 33 31 29 29 30 30 28 27 25 24 23 22 21 20 18 18 17 17 18 18 18 17 17 17 16 15 15 15 15 16
28 28 28 29 29 29 29 29 28 28 28 28 29 30 31 32 33 33 34 35 35 35 35 33 29 25 21 19 19 20 22 24 25 29 36 41 42 41 40 41 42 44 48 50 49 48 49 49 47 46 47 47 46 44 41 39 37 35 33 32 31 31 31 31 29 28 27 25 24 23 22 21 20 20 20 19 19 18 18 17 17 16 16 16 16 16 17
28 28 29 30 30 30 30 30 29 28 28 28 29 29 30 31 31 32 33 34 36 37 37 36 34 32 27 23 20 19 21 23 25 27 31 38 42 43 41 40 39 41 42 42 40 42 46 48 47 47 48 48 47 46 43 41 39 37 36 34 33 33 33 33 32 31 29 27 26 25 24 23 22 22 21 20 19 18 18 18 17 17 16 16 17 17 18
28 29 29 30 30 31 31 31 30 30 29 29 29 29 29 29 30 31 31 32 34 37 38 38 37 36 34 30 26 23 21 22 24 27 30 35 41 44 43 40 37 37 36 35 34 37 41 44 46 47 47 46 47 47 45 43 41 40 38 36 35 34 34 34 33 33 31 29 28 27 26 25 24 23 22 21 20 19 19 18 18 18 17 17 18 18 18
28 29 29 30 30 31 31 31 31 32 31 30 29 29 29 29 29 29 30 31 32 34 36 38 38 39 39 37 33 29 25 23 22 24 27 32 38 43 46 43 37 34 34 35 35 37 39 42 44 46 45 45 46 48 47 45 43 41 40 39 37 36 36 36 35 35 34 32 31 29 28 27 26 24 23 22 21 20 20 20 19 19 18 18 19 19 18
28 29 29 30 31 31 31 30 30 30 31 31 30 29 28 27 27 27 28 30 30 31 33 35 37 39 40 40 37 33 29 25 22 21 24 29 34 40 45 46 39 33 32 33 35 36 38 40 42 43 44 44 46 47 47 47 45 43 42 41 39 38 38 37 37 37 36 35 34 32 30 28 28 26 25 24 23 21 21 21 20 20 19 19 19 19 19
29 30 31 31 32 32 32 32 31 31 30 30 31 30 29 26 25 24 26 27 29 29 30 31 33 35 38 39 38 35 31 27 24 22 24 28 31 35 41 43 40 35 32 31 33 36 37 38 40 42 43 43 44 45 46 47 47 45 44 43 42 41 40 39 38 38 37 36 36 34 31 30 29 28 26 25 24 23 23 22 22 21 20 20 20 20 19
27 28 30 30 31 32 33 33 33 33 33 31 30 30 29 28 25 24 25 27 28 28 29 30 31 33 36 38 40 38 35 31 28 25 24 26 29 32 36 38 41 41 37 32 31 34 36 36 37 39 42 42 42 43 45 48 48 47 46 45 44 43 43 41 40 39 38 38 37 36 35 33 32 30 29 28 26 25 24 24 23 22 21 20 20 19 19
25 26 27 28 29 30 31 32 33 34 34 33 32 30 29 29 27 26 27 29 30 30 30 30 30 31 33 36 39 40 39 37 33 28 26 27 29 30 31 32 37 43 44 39 34 33 33 34 34 36 39 42 43 43 45 48 49 48 48 47 46 45 45 44 43 41 40 39 39 38 37 36 35 33 32 30 28 27 27 25 24 23 21 21 20 20 20
23 24 25 26 27 28 29 30 31 32 32 33 32 31 30 30 29 29 30 32 33 33 32 31 31 31 32 33 35 36 37 37 34 29 27 29 31 31 29 31 36 41 45 45 42 37 34 34 35 36 38 42 45 45 45 46 48 49 49 49 48 47 47 46 45 44 42 41 40 39 38 38 37 36 35 33 32 30 29 27 25 24 22 22 21 21 20
22 22 23 25 26 26 27 28 29 30 30 31 32 31 30 30 31 32 32 33 34 35 34 33 31 31 31 32 33 34 36 37 35 31 28 28 29 29 29 32 37 41 44 48 49 45 39 36 36 38 41 44 46 47 46 46 47 49 50 50 49 49 49 48 47 46 44 43 41 41 39 38 37 37 36 35 35 34 32 29 27 26 24 23 23 22 21
22 22 23 24 26 26 26 27 29 29 29 30 31 31 31 32 33 33 34 34 35 35 35 34 33 33 32 32 33 34 36 38 40 37 33 30 29 28 27 29 33 37 42 47 51 51 47 42 39 39 42 46 48 48 48 48 48 49 50 50 50 50 49 48 48 47 46 44 43 42 41 40 38 37 37 36 36 36 35 33 30 28 27 26 25 24 23
23 24 24 25 26 27 26 27 28 29 29 30 31 31 32 33 34 34 35 36 36 37 36 36 36 35 35 34 33 33 32 35 38 39 38 37 36 34 31 29 29 32 36 42 47 50 51 50 46 42 42 46 49 49 49 49 50 49 50 51 51 50 50 49 48 47 47 46 45 45 44 43 41 39 38 37 37 37 37 36 34 32 30 28 27 26 25
24 25 25 25 26 26 26 27 28 29 29 30 30 31 32 33 34 35 36 37 38 38 38 38 38 38 38 37 36 34 32 32 34 36 36 37 38 37 35 32 30 30 32 37 42 45 47 51 52 49 46 46 49 50 50 50 51 51 51 51 51 51 50 49 47 46 46 46 46 46 45 44 43 41 39 38 38 37 37 37 36 34 32 30 29 28 27
26 26 26 25 24 24 24 26 27 28 29 30 30 31 31 33 34 35 35 36 37 38 39 39 39 39 40 39 38 37 36 35 35 34 33 33 36 37 37 34 32 31 32 34 38 41 43 46 51 54 53 50 49 50 51 51 51 52 52 52 51 51 50 49 47 47 47 47 47 47 46 45 44 42 41 39 38 38 38 37 37 36 35 33 31 30 29
25 25 24 24 22 21 21 22 24 26 28 29 29 29 31 32 34 35 34 34 35 37 39 40 40 40 40 40 40 39 38 38 38 37 34 32 33 36 37 36 33 31 31 31 33 37 40 43 47 53 56 55 52 50 51 53 52 51 51 52 52 51 50 49 48 48 48 48 47 47 46 46 45 44 42 41 40 39 38 38 37 37 36 35 34 32 31
22 23 23 23 21 20 20 20 22 24 26 26 27 28 30 31 33 34 34 33 34 35 37 39 40 40 40 40 40 40 39 39 40 39 38 35 33 34 36 36 35 32 31 30 30 32 36 40 44 49 55 58 57 53 51 52 54 53 52 51 51 50 49 48 48 47 47 47 48 47 46 46 46 45 43 42 41 40 39 38 38 38 37 36 35 34 32
Wind_Direction
247 172 184 304 87 137 169 176 206 200 152 150 172 215 204 150 158 253 248 182 203 248 247 231 226 212 205 206 200 197 199 203 205 205 207 211 216 220 223 226 229 233 236 237 235 234 231 229 230 233 236 241 245 250 253 251 252 258 263 267 270 267 265 263 259 257 263 268 271 273 272 269 267 264 261 260 267 284 300 310 314 317 319 322 324 327 332
353 47 321 234 124 73 345 219 228 205 172 179 197 235 209 174 206 241 205 198 236 247 232 232 235 220 209 204 199 198 200 202 203 204 207 211 215 220 224 228 231 234 237 238 237 233 229 228 229 232 234 238 243 252 259 258 257 260 263 268 271 266 262 262 258 256 263 268 268 266 265 262 257 254 253 261 283 301 309 314 316 319 322 323 326 331 337
337 354 5 20 83 95 277 304 318 348 157 192 216 225 191 190 251 247 149 197 265 263 236 236 241 199 185 183 191 199 203 205 205 207 210 214 218 224 228 230 233 235 237 238 237 235 231 227 227 230 232 235 243 254 263 267 267 265 262 264 265 259 257 259 256 252 260 264 262 259 256 251 245 246 258 282 301 308 312 315 318 321 324 325 331 337 343
305 325 6 360 35 79 39 310 302 229 176 203 222 212 189 183 183 166 113 257 268 263 236 200 182 175 176 184 193 197 203 206 208 211 215 218 222 226 229 231 234 235 235 237 238 237 233 228 227 229 230 234 243 251 263 273 273 263 254 255 258 255 254 253 248 249 258 259 254 249 243 237 239 255 280 298 306 309 311 317 322 325 327 331 338 344 348
274 302 352 356 38 51 349 285 240 202 207 226 244 260 239 201 154 136 185 231 244 247 197 148 165 180 186 200 201 200 204 207 212 218 221 223 224 225 227 230 232 234 234 235 236 235 233 230 228 230 232 236 242 250 263 272 262 242 237 244 252 253 248 243 243 250 256 252 244 238 231 233 250 276 294 301 305 309 313 321 328 331 334 339 344 349 351
268 291 335 30 42 16 263 237 183 183 204 207 217 243 242 221 190 171 225 244 251 227 188 181 191 195 203 212 211 208 210 211 215 221 224 225 224 223 225 227 230 234 236 236 235 234 233 232 231 231 233 237 243 251 260 257 237 226 231 240 247 246 239 237 244 250 248 241 233 228 228 244 273 288 298 303 306 310 318 329 336 338 341 343 347 350 352
265 307 22 42 331 241 242 256 227 206 204 186 199 247 257 228 226 246 260 262 248 218 207 202 201 204 212 218 214 212 216 218 218 220 220 221 222 222 223 227 230 234 238 240 238 235 234 233 232 232 232 234 241 249 247 233 222 226 235 241 240 236 233 237 244 243 236 227 222 225 241 269 285 294 301 303 307 315 328 339 343 342 343 344 347 350 351
251 30 62 125 244 264 282 305 285 190 166 139 168 286 286 234 206 212 230 245 243 222 216 216 217 221 224 226 222 217 218 222 221 220 218 217 221 224 226 230 233 239 247 251 249 243 237 234 232 230 228 229 235 235 225 219 225 233 236 236 231 227 230 235 236 230 223 219 221 238 265 281 289 298 301 303 311 325 339 347 346 343 343 345 347 349 350
154 109 134 241 295 315 314 312 231 169 165 164 157 231 280 250 205 194 204 226 228 205 204 202 197 201 201 254 241 225 221 223 222 221 222 222 224 230 234 238 243 249 255 259 259 253 244 236 231 227 225 225 224 220 214 215 224 228 226 225 223 223 228 228 224 218 214 218 235 261 279 288 295 298 299 307 322 337 348 351 346 342 342 343 344 346 348
106 97 14 321 349 310 274 266 260 239 222 200 152 122 292 279 233 204 198 196 185 172 163 158 149 140 112 331 251 227 221 225 224 223 227 229 233 241 244 244 245 248 254 257 258 253 242 232 227 221 219 217 212 210 210 212 214 215 216 218 219 222 223 219 214 210 211 228 256 278 288 291 294 297 303 320 337 348 353 350 343 339 338 339 342 346 350
105 105 125 221 220 248 247 252 274 305 207 188 117 59 309 285 248 209 196 186 187 178 161 155 146 123 116 247 247 232 223 224 226 228 230 232 236 239 235 233 235 238 244 247 242 233 225 219 212 205 204 203 201 203 206 206 206 209 212 215 218 219 216 211 208 209 220 246 272 285 291 291 292 300 321 340 348 352 352 346 338 334 334 338 345 351 355
153 123 146 222 235 247 243 246 265 328 145 143 71 28 267 275 283 213 198 194 197 186 167 156 148 150 196 226 253 244 228 226 229 231 234 233 225 214 206 205 211 220 228 225 202 192 198 196 189 184 187 191 194 198 199 199 203 207 211 214 215 213 210 207 207 216 234 259 275 281 286 292 298 316 340 351 353 351 346 338 332 332 335 342 349 355 358
142 133 199 274 264 247 248 250 209 146 119 84 72 204 239 283 332 237 206 205 201 187 173 169 180 208 217 226 254 255 231 229 228 225 221 212 200 197 198 195 190 186 180 165 158 167 177 178 174 175 181 184 187 192 194 197 204 209 212 213 211 208 207 208 213 227 243 259 268 275 284 295 316 340 352 354 351 346 338 331 329 334 340 346 352 355 357
130 147 188 302 290 258 217 139 133 140 125 183 209 218 254 306 324 275 218 213 207 193 188 194 206 219 223 228 245 253 231 226 220 207 195 188 186 187 184 178 174 164 154 153 155 161 168 171 171 174 179 182 185 191 197 203 209 212 212 212 210 208 208 212 221 235 248 255 260 268 279 294 329 345 351 351 344 336 328 327 331 338 341 347 352 355 358
129 61 48 63 290 252 157 124 108 159 187 209 221 255 313 315 319 309 245 223 215 206 205 209 214 221 226 230 240 241 222 214 206 195 189 187 186 184 177 171 170 165 159 158 159 161 166 171 174 175 178 186 192 200 208 212 213 213 212 210 208 208 210 216 227 238 244 248 252 257 271 299 332 339 342 340 332 323 321 326 332 336 340 346 352 354 357
130 92 172 189 234 221 171 162 174 219 208 223 327 7 338 321 323 326 292 248 230 222 221 219 217 222 232 235 235 226 210 202 195 189 188 188 187 182 176 172 171 170 168 163 160 164 169 171 174 177 182 192 204 213 219 220 217 214 211 209 208 210 213 220 230 238 239 239 241 243 261 302 323 327 327 324 319 314 316 325 329 330 336 344 351 354 356
171 186 220 233 280 282 205 205 225 246 224 240 260 297 318 318 306 305 317 292 254 239 234 229 224 227 234 238 236 223 208 199 194 191 190 189 187 181 175 174 175 177 176 169 165 169 174 176 178 182 188 199 214 222 225 225 221 216 212 210 210 212 217 225 234 237 233 229 229 234 254 294 309 308 308 310 313 313 314 319 320 322 331 341 349 353 354
240 250 254 255 285 301 249 226 234 246 257 254 252 268 289 296 283 277 284 290 275 256 244 239 237 237 237 237 235 221 206 198 194 193 190 187 186 183 180 179 180 181 181 178 174 176 180 183 185 190 197 209 222 231 231 227 222 217 214 213 213 214 221 230 233 232 230 225 224 231 248 274 286 289 295 305 313 313 311 313 310 312 323 338 347 350 351
47 270 264 265 286 296 290 258 247 247 251 251 251 265 276 271 266 265 262 264 272 263 252 250 251 249 242 235 229 219 207 201 197 195 194 191 189 188 186 183 182 184 186 185 182 183 188 192 192 197 205 214 224 234 236 229 222 217 215 215 216 218 224 231 230 227 228 228 229 237 253 264 270 276 286 300 308 309 308 307 303 306 317 333 343 345 346
171 250 268 302 314 299 292 287 268 259 257 254 252 261 268 257 250 253 258 261 260 261 266 263 257 254 248 240 232 222 211 205 202 199 197 196 193 190 188 187 187 189 191 192 189 190 196 199 200 204 209 216 224 230 233 229 222 218 216 215 217 222 227 230 228 225 227 233 238 247 254 257 262 271 280 289 294 299 302 300 298 302 314 327 336 339 341
313 285 292 324 339 328 314 306 290 280 277 267 257 256 259 251 244 246 254 258 259 267 274 269 258 257 256 250 242 230 217 209 205 204 203 200 196 192 190 192 194 196 197 199 198 199 203 206 208 211 214 218 223 226 228 227 222 219 216 214 216 223 226 225 226 228 230 235 241 248 250 252 257 265 272 278 282 287 292 292 294 300 308 320 330 334 338
304 276 299 330 337 290 298 313 318 312 304 287 265 256 255 252 246 246 250 254 257 263 269 267 264 265 265 259 246 234 224 217 212 210 207 201 197 195 195 196 199 202 205 207 206 207 210 213 215 218 220 220 220 222 225 225 222 220 218 216 218 223 226 227 230 234 235 236 238 242 246 250 255 260 264 268 272 278 281 283 287 295 304 313 323 332 337
240 264 302 327 289 269 297 317 325 323 320 305 278 265 262 258 252 249 251 254 257 262 265 263 264 271 275 267 250 236 230 225 218 214 211 206 201 199 200 201 204 207 210 212 214 215 216 218 221 224 225 221 218 219 222 223 222 221 219 219 222 224 225 228 234 238 238 237 237 239 242 247 253 258 260 263 266 270 275 277 280 288 297 307 318 329 336
274 305 328 339 323 313 324 330 322 314 317 319 310 294 280 270 262 256 254 255 257 261 265 262 258 266 276 270 256 243 235 228 221 216 215 213 209 205 206 208 210 212 214 216 218 220 221 223 225 227 227 224 221 220 220 221 222 220 219 222 224 224 224 228 233 235 235 234 234 236 238 242 248 253 257 260 263 267 271 272 275 281 289 300 313 324 332
332 330 331 329 321 321 330 331 320 309 308 310 316 316 302 287 278 269 264 263 261 261 264 263 257 254 262 266 259 247 238 234 230 222 218 216 212 210 212 215 217 219 221 222 222 223 224 226 228 229 229 227 224 221 220 221 221 220 220 221 221 220 223 227 230 232 232 231 232 235 238 242 247 252 257 261 264 269 270 269 270 273 282 293 306 318 327
9 353 340 331 329 334 343 345 338 330 330 329 324 318 311 300 288 280 277 275 269 264 263 265 262 253 250 255 258 249 240 236 233 227 221 218 216 215 218 221 224 227 227 225 224 225 225 226 228 231 232 231 227 223 220 221 221 221 221 221 219 220 225 230 233 233 232 231 232 234 238 242 247 253 259 261 264 268 270 269 270 271 277 288 300 310 320
37 28 18 5 348 348 359 5 356 346 349 352 344 334 327 315 299 287 280 278 274 268 264 262 260 256 250 247 248 247 242 237 232 227 223 221 222 224 227 229 230 229 229 227 227 227 227 226 227 231 234 234 230 224 221 220 220 221 221 219 217 218 223 230 232 232 231 231 232 233 236 241 247 253 258 258 261 266 270 271 272 272 276 285 294 302 313
42 39 37 40 25 9 13 18 7 356 0 2 356 350 346 337 325 309 292 280 275 270 266 263 257 251 248 246 244 242 239 236 234 231 228 227 229 232 233 233 232 232 231 231 230 229 228 228 228 231 234 234 230 225 221 220 220 221 221 219 215 217 222 227 229 230 230 230 231 234 239 244 248 252 254 254 258 263 265 266 267 270 274 281 288 296 307
35 35 38 42 36 24 18 13 8 8 10 5 0 359 356 351 345 335 318 302 289 278 271 267 261 254 248 245 243 242 239 237 236 235 234 235 235 235 234 234 235 234 234 233 232 231 231 231 230 232 233 233 229 225 221 219 220 222 222 220 217 218 221 225 228 230 229 230 231 234 238 242 244 246 249 251 254 257 259 261 265 267 270 276 283 291 301
25 31 34 35 34 30 26 23 20 19 16 11 7 6 2 355 348 343 337 327 309 293 283 275 268 260 252 247 245 244 242 240 239 238 238 239 238 235 234 234 233 233 234 235 235 234 233 233 233 233 233 232 228 224 221 220 220 222 224 223 221 220 221 225 228 230 230 229 230 231 234 238 241 244 247 250 251 253 256 258 261 263 266 271 278 285 292
20 29 32 33 33 31 29 27 24 22 20 17 13 10 8 3 354 346 342 341 331 313 299 289 279 268 259 254 252 250 246 244 243 241 240 240 237 235 235 235 235 236 238 239 239 237 235 234 234 235 234 232 228 223 221 220 219 220 222 223 221 219 221 224 228 230 231 230 229 231 234 238 240 242 246 248 249 251 254 255 258 261 263 267 273 279 284
19 24 25 25 25 27 27 25 23 21 20 19 17 15 12 8 2 354 347 342 337 329 317 304 292 283 275 268 261 256 251 249 247 245 243 241 239 238 237 238 239 242 243 244 244 241 238 235 235 236 235 232 228 224 222 221 220 220 222 222 219 217 218 221 225 227 228 228 229 231 233 237 240 243 245 247 250 252 253 254 256 258 260 263 269 274 277
23 23 19 15 15 16 16 16 16 16 16 17 16 15 13 9 5 1 355 348 340 334 327 317 304 297 291 281 271 263 258 253 249 245 244 243 242 242 241 241 242 243 245 245 246 245 243 241 240 238 236 232 228 224 223 223 222 222 223 222 219 217 218 221 225 227 227 226 227 230 232 235 240 244 245 247 249 250 251 253 254 255 257 261 264 267 270
30 25 18 14 13 11 8 7 9 10 11 13 13 12 11 9 6 3 0 357 350 341 332 321 308 300 296 288 279 272 264 256 251 249 248 247 246 246 246 245 244 244 244 244 244 245 246 246 244 241 238 234 229 224 222 223 223 222 223 223 221 218 219 221 224 226 227 227 226 227 230 233 237 241 243 245 246 246 249 253 254 254 256 259 259 260 265
29 24 19 17 17 13 9 7 7 6 6 6 7 8 8 8 7 5 4 2 359 352 342 328 309 294 286 282 280 276 270 264 260 259 256 254 252 251 250 248 246 244 243 243 244 246 247 247 244 242 240 236 230 225 223 223 223 222 222 223 222 220 220 222 225 227 229 229 226 226 229 233 237 240 242 243 244 245 248 251 252 254 256 257 257 258 262
24 21 17 15 14 13 11 8 6 4 3 1 2 3 4 5 5 5 4 2 359 356 351 342 325 304 287 280 280 281 279 275 272 268 264 259 256 253 251 250 249 247 245 245 246 246 246 246 244 243 241 237 232 227 224 223 223 223 222 222 223 221 220 223 226 229 231 231 228 226 228 233 237 240 241 241 243 245 246 249 252 254 256 256 257 258 260
20 17 14 12 10 9 8 7 4 2 359 358 358 359 360 1 2 2 2 0 358 355 353 351 344 330 310 293 287 284 280 276 274 273 269 264 258 252 250 250 251 249 248 248 250 249 247 246 245 243 241 238 233 229 226 224 223 223 222 222 222 221 221 222 225 227 229 230 228 225 227 230 233 236 238 240 242 245 247 249 251 253 255 256 257 258 260
17 16 13 10 7 5 4 5 4 1 357 354 353 355 356 356 355 355 357 357 356 354 352 351 350 345 333 317 303 294 287 281 278 275 272 266 259 252 249 251 252 251 251 254 255 253 250 248 245 242 240 238 234 230 227 226 224 223 222 222 223 222 221 222 224 226 228 228 228 226 226 228 232 236 239 241 243 246 248 249 251 252 254 256 257 258 260
15 15 12 8 5 2 360 359 0 1 359 355 350 349 351 352 351 351 351 352 354 354 352 350 349 348 344 336 322 307 297 293 289 284 278 270 262 255 252 253 256 259 260 261 259 254 252 250 246 242 241 239 235 230 227 226 225 223 223 223 224 223 222 222 224 226 227 228 229 229 228 228 231 235 239 242 244 247 248 249 250 251 253 255 257 258 259
11 11 10 8 7 3 359 356 355 356 357 356 352 349 349 348 346 347 347 347 348 351 352 350 348 348 348 345 335 319 306 299 296 292 285 276 266 258 254 254 257 261 263 261 256 253 252 251 247 243 241 240 236 231 227 225 224 223 223 223 224 224 224 223 224 226 227 228 228 229 228 229 231 234 238 241 243 245 248 248 249 250 252 254 256 258 258
7 7 7 7 7 6 4 1 357 354 353 353 352 351 350 347 344 345 345 343 343 345 348 350 349 348 347 345 341 330 317 306 300 297 290 280 270 261 256 254 256 259 260 258 254 252 251 251 249 246 243 240 237 232 228 226 225 224 224 224 224 225 225 224 225 226 228 228 228 228 228 229 230 232 235 239 241 244 247 248 248 249 251 253 255 256 257
6 5 4 3 4 4 3 3 1 357 355 353 352 351 349 347 345 344 342 340 339 340 343 345 346 347 346 344 342 338 329 319 311 306 297 286 276 268 263 262 261 260 260 258 255 251 250 250 249 247 243 241 238 235 230 227 225 225 224 224 225 226 226 225 225 227 229 229 230 230 230 230 231 233 234 237 240 243 245 247 248 248 249 251 253 254 255
3 2 1 1 2 2 1 0 359 358 356 355 354 352 349 346 345 342 340 338 338 339 340 340 342 344 344 343 343 342 338 331 323 316 310 301 288 279 275 274 269 263 259 259 257 253 251 250 249 247 244 241 239 236 232 228 226 226 226 225 226 227 228 227 226 228 229 230 230 231 231 231 232 233 235 236 239 242 244 247 248 249 249 251 253 254 254
359 358 358 358 359 359 358 357 356 355 355 355 355 353 351 347 345 342 339 338 339 340 340 339 340 342 343 343 343 343 343 339 333 325 320 314 300 284 278 278 274 266 260 257 256 254 253 252 250 248 245 242 239 236 233 230 228 227 227 227 227 227 229 229 228 228 229 231 231 232 233 233 233 235 237 238 240 242 244 246 248 248 248 249 250 251 251
351 352 353 354 354 355 355 355 354 353 353 352 353 354 352 348 345 344 343 342 341 341 340 339 339 341 342 341 340 339 339 338 336 335 331 322 309 296 288 286 282 274 266 260 256 253 252 251 249 248 245 242 239 236 232 230 230 229 229 229 229 228 229 230 230 230 231 232 233 234 235 236 236 237 239 241 242 244 246 247 248 248 248 248 248 249 249
344 345 347 348 348 349 351 350 349 350 351 351 352 354 355 353 351 350 349 347 344 343 341 339 338 338 339 338 336 334 332 330 332 338 341 331 315 306 301 296 289 282 274 267 260 256 253 251 249 248 245 242 239 236 232 230 230 231 231 231 230 230 230 231 232 232 233 234 235 235 236 237 238 239 241 243 244 246 247 247 247 247 247 247 248 248 247
337 337 339 341 342 342 344 344 344 346 349 349 349 351 354 354 352 352 351 349 347 345 343 341 339 338 337 335 333 333 333 329 327 330 336 333 321 309 303 297 290 285 279 273 266 262 259 256 253 251 247 243 239 237 234 230 229 230 232 232 232 232 231 232 233 234 234 235 236 237 238 238 239 240 241 243 245 246 246 246 246 246 246 246 246 246 245
330 330 332 335 336 336 336 337 338 341 343 344 344 345 346 346 345 346 347 347 346 344 344 343 341 340 338 336 332 331 332 331 327 326 330 332 327 317 306 295 287 284 282 278 273 269 265 260 256 255 252 245 240 237 235 232 230 230 231 233 233 233 232 232 233 235 235 236 237 238 238 239 239 240 241 243 245 246 247 247 247 246 246 246 246 247 247
324 325 326 328 330 331 331 331 333 336 338 339 339 340 340 340 339 341 342 342 342 342 341 340 340 339 339 338 334 330 327 327 325 324 325 327 326 323 315 303 289 281 279 277 275 273 269 264 258 255 252 248 242 238 236 234 232 231 232 233 234 234 233 233 234 235 237 237 238 239 239 240 240 240 241 243 245 247 247 248 247 247 246 246 247 248 247
322 323 323 325 327 328 327 328 329 332 334 335 336 337 338 337 336 336 338 339 338 338 337 336 336 337 338 338 336 332 328 324 321 320 321 321 321 320 320 313 300 286 279 277 274 273 272 269 262 256 251 248 244 240 237 235 234 233 233 234 235 236 236 235 235 236 238 238 239 239 240 241 241 241 242 243 245 247 247 248 248 248 246 246 247 247 247
322 321 322 324 325 324 322 322 324 327 330 332 334 336 337 337 334 334 335 336 335 334 334 332 332 333 335 336 335 333 331 327 322 319 319 319 317 316 317 318 311 297 285 279 276 274 273 272 267 259 253 249 246 243 240 237 235 235 235 235 236 237 237 237 236 236 238 239 240 240 241 241 242 242 242 243 244 246 247 248 248 247 246 246 246 247 247
320 319 319 319 319 317 315 316 318 321 325 329 332 334 335 335 333 332 333 334 334 332 331 329 328 329 332 334 334 333 331 329 325 320 318 317 316 313 312 315 317 313 300 288 281 279 277 274 270 264 258 252 248 245 242 240 237 236 236 236 237 237 238 238 237 238 239 240 240 240 241 241 242 242 242 242 243 245 246 247 247 247 247 247 246 246 246